Location: Calvin Observatory
(42.9309°N, 85.5886°W)
Time: 06:01:36
(UTC-04:00)

ISS - Visible Passes

Search period start: 17 July 2018 00:00
Search period end: 27 July 2018 00:00
Orbit: 402 x 408 km, 51.6° (Epoch: 17 July)

Date Brightness Start Highest point End Pass type
(mag) Time Alt. Az. Time Alt. Az. Time Alt. Az.
17 Jul -1.6 01:51:38 25° NNW 01:51:38 25° NNW 01:54:25 10° NE visible
17 Jul -0.9 03:26:31 10° NW 03:28:51 18° N 03:31:13 10° NE visible
17 Jul -1.9 05:03:01 10° NW 05:06:04 33° NNE 05:09:06 10° E visible
18 Jul -1.7 01:00:30 26° NNE 01:00:30 26° NNE 01:02:23 10° NE visible
18 Jul -0.9 02:34:09 10° NW 02:36:30 18° N 02:38:52 10° NE visible
18 Jul -1.4 04:11:01 10° NW 04:13:48 25° NNE 04:16:36 10° ENE visible
18 Jul -2.5 22:28:25 10° S 22:35:07 - ENE 22:30:46 20° SE visible
19 Jul -3.1 00:03:55 10° WSW 00:07:08 54° NNW 00:10:22 10° NE visible
19 Jul -1.0 01:41:39 10° WNW 01:44:09 20° N 01:46:39 10° NE visible
19 Jul -1.0 03:18:56 10° NW 03:21:29 20° N 03:24:02 10° ENE visible
19 Jul -3.3 04:55:11 10° NW 04:58:27 61° NNE 05:01:43 10° ESE visible
19 Jul -4.0 23:11:44 10° SW 23:15:00 87° SE 23:18:18 10° ENE visible
20 Jul -1.3 00:49:06 10° WNW 00:51:49 23° NNW 00:54:32 10° NE visible
20 Jul -0.9 02:26:45 10° NW 02:29:07 18° N 02:31:30 10° NE visible
20 Jul -2.3 04:03:08 10° NW 04:06:16 38° NNE 04:09:22 10° E visible
20 Jul -3.1 05:39:44 10° WNW 05:42:42 31° SW 05:45:40 10° SSE visible
20 Jul -3.6 22:19:46 10° SW 22:22:55 46° SE 22:26:05 10° ENE visible
20 Jul -1.8 23:56:33 10° W 23:59:30 30° NNW 00:02:29 10° NE visible
21 Jul -0.8 01:34:24 10° NW 01:36:44 18° N 01:39:04 10° NE visible
21 Jul -1.6 03:11:06 10° NW 03:13:59 27° NNE 03:16:52 10° E visible
21 Jul -3.9 04:47:25 10° WNW 04:50:40 60° SW 04:53:54 10° SE visible
21 Jul -2.7 23:04:05 10° WSW 23:07:15 45° NNW 23:10:26 10° NE visible
22 Jul -0.9 00:41:54 10° NW 00:44:20 19° N 00:46:45 10° NE visible
22 Jul -1.2 02:19:02 10° NW 02:21:39 21° NNE 02:24:17 10° ENE visible
22 Jul -3.7 03:55:15 10° NW 03:58:33 75° NNE 04:01:50 10° ESE visible
22 Jul -2.0 05:32:50 10° W 05:34:39 14° SW 05:36:27 10° SSW visible
22 Jul -3.7 22:11:47 10° WSW 22:15:03 77° NNW 22:18:21 10° NE visible
22 Jul -1.2 23:49:19 10° WNW 23:51:56 22° NNW 23:54:35 10° NE visible
23 Jul -1.0 01:26:50 10° NW 01:29:16 19° N 01:30:48 14° NE visible
23 Jul -0.9 03:03:09 10° NW 03:03:20 11° NW 03:03:20 11° NW visible
23 Jul -1.6 22:56:43 10° W 22:59:35 27° NNW 23:02:28 10° NE visible
24 Jul -0.9 00:34:31 10° NW 00:36:50 18° N 00:39:10 10° NE visible
24 Jul -1.0 02:11:05 10° NW 02:11:59 16° NW 02:11:59 16° NW visible
24 Jul -2.2 22:04:10 10° W 22:07:15 38° NNW 22:10:22 10° NE visible
24 Jul -0.9 23:42:02 10° NW 23:44:24 18° N 23:46:46 10° NE visible
25 Jul -1.2 01:18:59 10° NW 01:21:02 22° N 01:21:02 22° N visible
25 Jul -1.1 22:49:25 10° WNW 22:51:57 20° N 22:54:30 10° NE visible
26 Jul -1.3 00:26:48 10° NW 00:29:17 19° N 00:30:16 17° NNE visible
26 Jul -1.4 21:56:46 10° WNW 21:59:33 25° NNW 22:02:20 10° NE visible
26 Jul -1.0 23:34:29 10° NW 23:36:50 18° N 23:39:10 10° NE visible
